• In Hungary
  • List of Countries
  • For 7 days
  • Water Temperature
  • Satellite Maps
  • Weather Map
  • News
  • Weather Widgets
  • user-avatar
    Login

    Hourly Weather Nizovka

    Today, 23 January, Tuesday

    Time Temperature Precipitation Wind Pressure Humidity
    00:00 -8°C° 0 mm 1 mps 752 mmHg 94%
    01:00 -9°C° 0 mm 2 mps 752 mmHg 94%
    02:00 -9°C° 0 mm 2 mps 752 mmHg 95%
    03:00 -8°C° 0 mm 2 mps 752 mmHg 95%
    04:00 -8°C° 0 mm 2 mps 752 mmHg 95%
    05:00 -9°C° 0 mm 3 mps 752 mmHg 95%
    06:00 -9°C° 0 mm 3 mps 752 mmHg 95%
    07:00 -9°C° 0.1 mm 3 mps 752 mmHg 95%
    08:00 -9°C° 0.1 mm 3 mps 752 mmHg 95%
    09:00 -9°C° 0 mm 3 mps 752 mmHg 95%
    10:00 -9°C° 0.1 mm 4 mps 752 mmHg 94%
    11:00 -9°C° 0.1 mm 4 mps 751 mmHg 93%
    12:00 -9°C° 0.1 mm 4 mps 751 mmHg 93%
    13:00 -9°C° 0.3 mm 4 mps 751 mmHg 92%
    14:00 -8°C° 0.3 mm 4 mps 751 mmHg 92%
    15:00 -9°C° 0 mm 4 mps 751 mmHg 91%
    16:00 -9°C° 0.2 mm 4 mps 751 mmHg 92%
    17:00 -9°C° 0.2 mm 4 mps 752 mmHg 93%
    18:00 -10°C° 0.2 mm 4 mps 752 mmHg 93%
    19:00 -10°C° 0.3 mm 4 mps 752 mmHg 94%
    20:00 -10°C° 0.3 mm 4 mps 752 mmHg 94%
    21:00 -9°C° 0.3 mm 3 mps 752 mmHg 94%
    22:00 -9°C° 0.2 mm 3 mps 752 mmHg 94%
    23:00 -10°C° 0.2 mm 3 mps 753 mmHg 94%

    Tomorrow, 24 January, Wednesday

    Time Temperature Precipitation Wind Pressure Humidity
    00:00 -10°C° 0.2 mm 3 mps 753 mmHg 94%
    01:00 -10°C° 0.2 mm 3 mps 753 mmHg 94%
    02:00 -11°C° 0.2 mm 4 mps 753 mmHg 94%
    03:00 -11°C° 0.2 mm 4 mps 754 mmHg 93%
    04:00 -12°C° 0.1 mm 4 mps 754 mmHg 93%
    05:00 -12°C° 0.1 mm 4 mps 754 mmHg 93%
    06:00 -12°C° 0.1 mm 4 mps 754 mmHg 93%
    07:00 -12°C° 0 mm 4 mps 755 mmHg 93%
    08:00 -12°C° 0 mm 4 mps 755 mmHg 93%
    09:00 -14°C° 0 mm 4 mps 755 mmHg 93%
    10:00 -12°C° 0 mm 4 mps 756 mmHg 92%
    11:00 -12°C° 0 mm 4 mps 756 mmHg 91%
    12:00 -12°C° 0 mm 4 mps 756 mmHg 90%
    13:00 -12°C° 0 mm 4 mps 757 mmHg 90%
    14:00 -12°C° 0 mm 4 mps 757 mmHg 90%
    15:00 -12°C° 0 mm 4 mps 757 mmHg 89%
    16:00 -12°C° 0 mm 3 mps 757 mmHg 91%
    17:00 -13°C° 0 mm 3 mps 758 mmHg 92%
    18:00 -13°C° 0 mm 3 mps 758 mmHg 93%
    19:00 -14°C° 0 mm 3 mps 758 mmHg 94%
    20:00 -15°C° 0 mm 3 mps 759 mmHg 95%
    21:00 -14°C° 0 mm 2 mps 759 mmHg 96%
    22:00 -15°C° 0 mm 2 mps 759 mmHg 97%
    23:00 -15°C° 0 mm 2 mps 759 mmHg 97%

    Day after tomorrow, 25 January, Thursday

    Time Temperature Precipitation Wind Pressure Humidity
    00:00 -15°C° 0 mm 2 mps 759 mmHg 97%
    01:00 -15°C° 0 mm 2 mps 760 mmHg 97%
    02:00 -15°C° 0 mm 2 mps 760 mmHg 97%
    03:00 -15°C° 0 mm 2 mps 760 mmHg 97%
    04:00 -15°C° 0 mm 2 mps 761 mmHg 97%
    05:00 -15°C° 0 mm 2 mps 761 mmHg 97%
    06:00 -15°C° 0 mm 2 mps 761 mmHg 97%
    07:00 -14°C° 0 mm 1 mps 761 mmHg 97%
    08:00 -14°C° 0 mm 1 mps 761 mmHg 96%
    09:00 -14°C° 0 mm 1 mps 761 mmHg 96%
    10:00 -13°C° 0 mm 1 mps 762 mmHg 95%
    11:00 -12°C° 0 mm 1 mps 762 mmHg 93%
    12:00 -12°C° 0 mm 1 mps 762 mmHg 92%
    13:00 -12°C° 0 mm 1 mps 762 mmHg 92%
    14:00 -12°C° 0 mm 0 mps 762 mmHg 92%
    15:00 -12°C° 0 mm 0 mps 762 mmHg 93%
    16:00 -13°C° 0 mm 1 mps 762 mmHg 94%
    17:00 -14°C° 0 mm 1 mps 762 mmHg 95%
    18:00 -15°C° 0 mm 1 mps 762 mmHg 96%
    19:00 -15°C° 0 mm 1 mps 762 mmHg 97%
    20:00 -15°C° 0 mm 1 mps 762 mmHg 97%
    21:00 -18°C° 0 mm 2 mps 762 mmHg 97%
    22:00 -18°C° 0 mm 2 mps 762 mmHg 97%
    23:00 -18°C° 0 mm 2 mps 763 mmHg 97%

    26 January, Friday

    Time Temperature Precipitation Wind Pressure Humidity
    00:00 -18°C° 0 mm 2 mps 763 mmHg 97%
    01:00 -17°C° 0 mm 2 mps 763 mmHg 97%
    02:00 -17°C° 0 mm 2 mps 763 mmHg 97%
    03:00 -17°C° 0 mm 2 mps 763 mmHg 97%
    04:00 -17°C° 0 mm 2 mps 763 mmHg 97%
    05:00 -17°C° 0 mm 2 mps 763 mmHg 97%
    06:00 -17°C° 0 mm 2 mps 763 mmHg 97%
    07:00 -16°C° 0 mm 2 mps 764 mmHg 97%
    08:00 -16°C° 0 mm 2 mps 764 mmHg 97%
    09:00 -16°C° 0 mm 2 mps 764 mmHg 97%
    10:00 -15°C° 0 mm 2 mps 764 mmHg 96%
    11:00 -14°C° 0 mm 3 mps 764 mmHg 95%
    12:00 -13°C° 0 mm 3 mps 764 mmHg 93%
    13:00 -13°C° 0 mm 3 mps 764 mmHg 93%
    14:00 -12°C° 0 mm 3 mps 764 mmHg 93%
    15:00 -10°C° 0 mm 3 mps 764 mmHg 93%
    16:00 -12°C° 0 mm 3 mps 764 mmHg 94%
    17:00 -12°C° 0 mm 3 mps 765 mmHg 94%
    18:00 -10°C° 0 mm 2 mps 765 mmHg 95%
    19:00 -13°C° 0 mm 3 mps 765 mmHg 95%
    20:00 -13°C° 0 mm 3 mps 765 mmHg 95%
    21:00 -13°C° 0 mm 3 mps 765 mmHg 95%
    22:00 -13°C° 0 mm 3 mps 765 mmHg 95%
    23:00 -13°C° 0 mm 3 mps 765 mmHg 95%

    27 January, Saturday

    Time Temperature Precipitation Wind Pressure Humidity
    00:00 -14°C° 0 mm 3 mps 765 mmHg 95%
    01:00 -14°C° 0 mm 3 mps 766 mmHg 95%
    02:00 -14°C° 0 mm 3 mps 766 mmHg 95%
    03:00 -14°C° 0 mm 3 mps 766 mmHg 95%
    04:00 -15°C° 0 mm 3 mps 766 mmHg 95%
    05:00 -15°C° 0 mm 3 mps 766 mmHg 95%
    06:00 -16°C° 0 mm 3 mps 766 mmHg 96%
    07:00 -16°C° 0 mm 3 mps 766 mmHg 95%
    08:00 -17°C° 0 mm 3 mps 766 mmHg 95%
    09:00 -17°C° 0 mm 3 mps 766 mmHg 95%
    10:00 -17°C° 0 mm 3 mps 766 mmHg 94%
    11:00 -17°C° 0 mm 3 mps 766 mmHg 93%
    12:00 -16°C° 0 mm 3 mps 766 mmHg 92%
    13:00 -16°C° 0 mm 3 mps 766 mmHg 92%
    14:00 -16°C° 0 mm 3 mps 766 mmHg 92%
    15:00 -16°C° 0 mm 3 mps 766 mmHg 92%
    16:00 -16°C° 0 mm 3 mps 766 mmHg 93%
    17:00 -17°C° 0 mm 3 mps 766 mmHg 94%
    18:00 -18°C° 0 mm 3 mps 766 mmHg 94%
    19:00 -18°C° 0 mm 3 mps 766 mmHg 94%
    20:00 -18°C° 0 mm 3 mps 766 mmHg 94%
    21:00 -19°C° 0 mm 4 mps 766 mmHg 94%
    22:00 -19°C° 0 mm 4 mps 765 mmHg 94%
    23:00 -19°C° 0 mm 4 mps 765 mmHg 94%

    28 January, Sunday

    Time Temperature Precipitation Wind Pressure Humidity
    00:00 -19°C° 0 mm 4 mps 765 mmHg 94%
    01:00 -18°C° 0 mm 4 mps 765 mmHg 94%
    02:00 -18°C° 0 mm 4 mps 765 mmHg 94%
    03:00 -18°C° 0 mm 4 mps 765 mmHg 94%
    04:00 -17°C° 0 mm 4 mps 764 mmHg 94%
    05:00 -17°C° 0 mm 4 mps 764 mmHg 94%
    06:00 -16°C° 0 mm 4 mps 764 mmHg 94%
    07:00 -17°C° 0 mm 5 mps 763 mmHg 93%
    08:00 -15°C° 0 mm 5 mps 763 mmHg 93%
    09:00 -15°C° 0 mm 5 mps 763 mmHg 92%
    10:00 -14°C° 0 mm 5 mps 762 mmHg 92%
    11:00 -13°C° 0 mm 5 mps 762 mmHg 92%
    12:00 -14°C° 0 mm 6 mps 761 mmHg 91%
    13:00 -12°C° 0.1 mm 6 mps 761 mmHg 91%
    14:00 -12°C° 0.1 mm 6 mps 760 mmHg 91%
    15:00 -12°C° 0.1 mm 6 mps 760 mmHg 91%
    16:00 -12°C° 0.2 mm 5 mps 759 mmHg 91%
    17:00 -12°C° 0.2 mm 5 mps 759 mmHg 92%
    18:00 -12°C° 0.2 mm 5 mps 759 mmHg 92%
    19:00 -11°C° 0.3 mm 5 mps 758 mmHg 92%
    20:00 -11°C° 0.3 mm 5 mps 757 mmHg 92%
    21:00 -11°C° 0.3 mm 6 mps 757 mmHg 93%
    22:00 -11°C° 0.2 mm 5 mps 756 mmHg 92%
    23:00 -11°C° 0.2 mm 5 mps 756 mmHg 92%
    Show more